Tracking 27122 objects as of 24-Mar-2023
HD Live streaming from Space Station
objects crossing your sky now

COSMOS 1818 COOLANT

Track COSMOS 1818 COOLANT now!
10-day predictions


NORAD ID: 50792
Int'l Code: 1987-011BH
Perigee: 774.4 km
Apogee: 791.8 km
Inclination: 65.0 °
Period: 100.4 minutes
Semi major axis: 7154 km
RCS: Unknown
Launch date: February 1, 1987
Source: Commonwealth of Independent States (former USSR) (CIS)
Launch site: TYURATAM MISSILE AND SPACE COMPLEX (TTMTR)

Note: This is SATELLITE DEBRIS
Your satellite tracking list
Your tracking list is empty




NASA's NSSDC Master Catalog

Two Line Element Set (TLE):
1 50792U 87011BH  23065.11900642  .00001883  00000-0  69829-3 0  9996
2 50792  65.0107 328.0686 0012169 281.1411 148.6540 14.34726530486038
Source of the keplerian elements: AFSPC